TimeEST,TemperatureF,Dew PointF,Humidity,Sea Level PressureIn,VisibilityMPH,Wind Direction,Wind SpeedMPH,Gust SpeedMPH,PrecipitationIn,Events,Conditions,WindDirDegrees,DateUTC
12:51 AM,45.0,35.1,68,29.87,10.0,South,3.5,-,N/A,,Clear,190,2014-01-14 05:51:00
1:51 AM,43.0,35.1,74,29.86,10.0,SSW,5.8,-,N/A,,Clear,210,2014-01-14 06:51:00
2:51 AM,48.9,37.9,66,29.83,10.0,South,8.1,-,N/A,,Scattered Clouds,180,2014-01-14 07:51:00
3:51 AM,48.0,39.0,71,29.82,10.0,South,4.6,-,N/A,,Partly Cloudy,190,2014-01-14 08:51:00
4:51 AM,45.0,37.9,76,29.83,10.0,SSW,5.8,-,0.00,Rain,Light Rain,210,2014-01-14 09:51:00
5:51 AM,46.0,39.0,76,29.81,10.0,Calm,Calm,-,0.00,Rain,Light Rain,0,2014-01-14 10:51:00
6:51 AM,46.0,39.9,79,29.81,10.0,SSW,3.5,-,0.00,,Overcast,200,2014-01-14 11:51:00
7:51 AM,48.0,41.0,77,29.81,10.0,South,5.8,-,0.01,Rain,Light Rain,180,2014-01-14 12:51:00
8:51 AM,48.0,42.1,80,29.81,10.0,Variable,4.6,-,0.03,Rain,Light Rain,0,2014-01-14 13:51:00
9:51 AM,48.0,44.1,86,29.77,10.0,Calm,Calm,-,0.02,Rain,Light Rain,0,2014-01-14 14:51:00
10:51 AM,48.0,44.1,86,29.76,8.0,SW,3.5,-,0.01,Rain,Light Rain,220,2014-01-14 15:51:00
11:23 AM,48.2,44.6,87,29.76,2.0,SSW,3.5,-,0.01,Rain,Light Rain,200,2014-01-14 16:23:00
11:30 AM,48.2,44.6,87,29.75,2.0,Calm,Calm,-,0.01,Rain,Light Rain,0,2014-01-14 16:30:00
11:34 AM,48.2,44.6,87,29.75,1.8,SW,3.5,-,0.02,Rain,Light Rain,220,2014-01-14 16:34:00
11:42 AM,48.2,44.6,87,29.76,2.0,SW,3.5,-,0.02,Rain,Light Rain,220,2014-01-14 16:42:00
11:51 AM,48.0,44.1,86,29.75,2.0,SW,4.6,-,0.02,Rain,Light Rain,220,2014-01-14 16:51:00
12:00 PM,48.2,44.6,87,29.74,2.0,SW,3.5,-,0.00,Rain,Light Rain,230,2014-01-14 17:00:00
12:13 PM,48.2,44.6,87,29.72,2.0,SW,3.5,-,0.00,Rain,Light Rain,220,2014-01-14 17:13:00
12:20 PM,48.2,44.6,87,29.72,2.0,Calm,Calm,-,0.01,Rain,Light Rain,0,2014-01-14 17:20:00
12:51 PM,48.0,45.0,89,29.71,2.5,Calm,Calm,-,0.01,Rain,Light Rain,0,2014-01-14 17:51:00
1:21 PM,48.2,44.6,87,29.70,2.5,Calm,Calm,-,0.03,Rain,Light Rain,0,2014-01-14 18:21:00
1:35 PM,48.2,44.6,87,29.69,1.8,Calm,Calm,-,0.05,Fog-Rain,Light Rain,0,2014-01-14 18:35:00
1:42 PM,48.2,44.6,87,29.68,2.0,Calm,Calm,-,0.05,Fog-Rain,Rain,0,2014-01-14 18:42:00
1:51 PM,48.9,45.0,86,29.68,1.8,Calm,Calm,-,0.07,Fog-Rain,Rain,0,2014-01-14 18:51:00
1:58 PM,48.2,46.4,93,29.67,2.5,Variable,3.5,-,0.00,Fog-Rain,Light Rain,0,2014-01-14 18:58:00
2:06 PM,48.2,44.6,87,29.68,3.0,Calm,Calm,-,0.01,Fog-Rain,Light Rain,0,2014-01-14 19:06:00
2:15 PM,48.2,44.6,87,29.68,2.0,Calm,Calm,-,0.02,Fog-Rain,Rain,0,2014-01-14 19:15:00
2:51 PM,48.0,45.0,89,29.68,2.0,WNW,3.5,-,0.07,Fog-Rain,Rain,290,2014-01-14 19:51:00
2:58 PM,48.2,44.6,87,29.68,2.5,WNW,4.6,-,0.01,Fog-Rain,Rain,300,2014-01-14 19:58:00
3:21 PM,48.2,44.6,87,29.69,2.5,WNW,4.6,-,0.04,Fog-Rain,Light Rain,300,2014-01-14 20:21:00
3:27 PM,48.2,44.6,87,29.70,2.5,WNW,5.8,-,0.04,Fog-Rain,Light Rain,290,2014-01-14 20:27:00
3:39 PM,48.2,44.6,87,29.68,2.5,NW,4.6,-,0.05,Fog-Rain,Light Rain,310,2014-01-14 20:39:00
3:51 PM,46.9,44.1,90,29.69,2.5,NW,5.8,-,0.06,Fog-Rain,Light Rain,310,2014-01-14 20:51:00
3:58 PM,46.4,44.6,93,29.69,5.0,NW,5.8,-,0.00,Fog-Rain,Light Rain,310,2014-01-14 20:58:00
4:51 PM,46.9,43.0,86,29.68,10.0,Calm,Calm,-,0.05,Fog-Rain,Light Rain,0,2014-01-14 21:51:00
5:51 PM,46.9,43.0,86,29.70,10.0,West,3.5,-,0.02,Fog-Rain,Light Rain,280,2014-01-14 22:51:00
6:51 PM,46.9,42.1,83,29.70,10.0,West,4.6,-,0.00,Rain,Light Rain,280,2014-01-14 23:51:00
7:51 PM,46.9,42.1,83,29.77,10.0,West,9.2,-,0.00,,Overcast,270,2014-01-15 00:51:00
8:51 PM,48.0,42.1,80,29.81,10.0,WSW,6.9,-,0.00,,Overcast,250,2014-01-15 01:51:00
9:51 PM,46.0,41.0,83,29.83,9.0,WSW,4.6,-,N/A,,Clear,250,2014-01-15 02:51:00
10:51 PM,42.1,37.9,85,29.83,10.0,Calm,Calm,-,N/A,Fog,Shallow Fog,0,2014-01-15 03:51:00
11:23 PM,41.0,37.4,87,29.84,10.0,Calm,Calm,-,N/A,Fog,Shallow Fog,0,2014-01-15 04:23:00
11:51 PM,42.1,37.9,85,29.84,10.0,Calm,Calm,-,N/A,Fog,Shallow Fog,0,2014-01-15 04:51:00